Sarasota, FL

5:34 PM EDT on October 23, 2017 (GMT -0400)
Sarasota-bradenton

Weather History for KSRQ - October, 2012

Change the Weather History Date:

Thursday, October 25, 2012

  Actual Average Record
Temperature  
Mean Temperature 78 °F 74 °F  
Max Temperature 84 °F 83 °F 91 °F (1971)
Min Temperature 72 °F 65 °F 44 °F (1937)
Degree Days  
Heating Degree Days 0 0  
Month to date heating degree days 0 0  
Since 1 July heating degree days 0 0  
Cooling Degree Days 13 9  
Month to date cooling degree days 346 304  
Year to date cooling degree days 3610 3093  
Growing Degree Days 28 (Base 50)    
Moisture  
Dew Point 68 °F    
Average Humidity 75    
Maximum Humidity 90    
Minimum Humidity 55    
Precipitation  
Precipitation 0.00 in 0.08 in 3.50 in (1921)
Month to date precipitation 3.32 2.66  
Year to date precipitation 43.69 48.09  
Sea Level Pressure  
Sea Level Pressure 29.84 in    
Wind  
Wind Speed 10 mph (NE)    
Max Wind Speed 22 mph    
Max Gust Speed 29 mph    
Visibility 10 miles    
Events      
T = Trace of Precipitation, MM = Missing Value Source: NWS Daily Summary

Daily Weather History Graph

Daily Weather History Graph

Search for Another Location

Airport or City:

Trip Planner

Search our weather history database for the weather conditions in past years. The results will help you decide how hot, cold, wet, or windy it might be!

Date:

Astronomy

Oct. 25, 2012 Rise Set
Actual Time 7:36 AM EDT 6:51 PM EDT
Civil Twilight 7:12 AM EDT 7:15 PM EDT
Nautical Twilight 6:45 AM EDT 7:42 PM EDT
Astronomical Twilight 6:17 AM EDT 8:10 PM EDT
Moon 4:20 PM EDT (10/25) 3:51 AM EDT (10/25)
Length of Visible Light 12h 02m
Length of Day
11h 15m
Waxing Gibbous, 84% of the Moon is Illuminated
Oct 25
Waxing Gibbous
Oct 29
Full
Nov 6
Last Quarter
Nov 13
New
Nov 20
First Quarter

Hourly Weather History & Observations

Time (EDT) Temp. Heat Index Dew Point Humidity Pressure Visibility Wind Dir Wind Speed Gust Speed Precip Events Conditions
12:53 AM 73.0 °F - 66.9 °F 81% 29.90 in 10.0 mi NNE 5.8 mph - N/A   Clear
1:53 AM 73.0 °F - 66.9 °F 81% 29.89 in 10.0 mi NE 6.9 mph - N/A   Scattered Clouds
2:53 AM 72.0 °F - 66.9 °F 84% 29.86 in 10.0 mi NNE 5.8 mph - N/A   Clear
3:53 AM 72.0 °F - 66.9 °F 84% 29.85 in 10.0 mi NE 6.9 mph - N/A   Clear
4:37 AM 73.4 °F - 68.0 °F 83% 29.84 in 10.0 mi ENE 11.5 mph - N/A   Mostly Cloudy
4:53 AM 73.0 °F - 68.0 °F 84% 29.84 in 10.0 mi NE 10.4 mph - N/A   Scattered Clouds
5:27 AM 73.4 °F - 68.0 °F 83% 29.84 in 10.0 mi NNE 8.1 mph - N/A   Mostly Cloudy
5:46 AM 73.4 °F - 68.0 °F 83% 29.84 in 10.0 mi NE 8.1 mph - N/A   Scattered Clouds
5:53 AM 73.0 °F - 68.0 °F 84% 29.84 in 10.0 mi NE 8.1 mph - N/A   Partly Cloudy
6:53 AM 72.0 °F - 68.0 °F 87% 29.85 in 10.0 mi NE 6.9 mph - N/A   Clear
7:53 AM 72.0 °F - 68.0 °F 87% 29.86 in 10.0 mi NE 6.9 mph - N/A   Clear
8:53 AM 75.0 °F - 69.1 °F 82% 29.87 in 10.0 mi NE 11.5 mph - N/A   Clear
9:53 AM 78.1 °F - 69.1 °F 74% 29.87 in 10.0 mi NE 11.5 mph 23.0 mph N/A   Clear
10:53 AM 80.1 °F 83.2 °F 70.0 °F 71% 29.87 in 10.0 mi NE 10.4 mph - N/A   Scattered Clouds
11:53 AM 81.0 °F 84.4 °F 70.0 °F 69% 29.86 in 10.0 mi ENE 11.5 mph 20.7 mph N/A   Clear
12:53 PM 82.0 °F 86.3 °F 71.1 °F 69% 29.83 in 10.0 mi NE 10.4 mph - N/A   Overcast
1:53 PM 84.0 °F 87.0 °F 68.0 °F 58% 29.80 in 10.0 mi East 17.3 mph 23.0 mph N/A   Scattered Clouds
2:53 PM 84.0 °F 86.3 °F 66.0 °F 55% 29.79 in 10.0 mi ENE 18.4 mph 25.3 mph N/A   Clear
3:53 PM 82.9 °F 85.0 °F 66.0 °F 56% 29.78 in 10.0 mi ENE 15.0 mph 18.4 mph N/A   Clear
4:53 PM 82.0 °F 84.5 °F 66.9 °F 60% 29.78 in 10.0 mi NE 9.2 mph 19.6 mph N/A   Clear
5:53 PM 82.0 °F 84.5 °F 66.9 °F 60% 29.79 in 10.0 mi NE 6.9 mph - N/A   Scattered Clouds
6:53 PM 79.0 °F - 64.9 °F 62% 29.81 in 10.0 mi NNE 6.9 mph - N/A   Partly Cloudy
7:53 PM 77.0 °F - 69.1 °F 76% 29.83 in 10.0 mi NNE 8.1 mph 20.7 mph N/A   Mostly Cloudy
8:53 PM 75.9 °F - 69.1 °F 79% 29.82 in 10.0 mi NNE 9.2 mph - N/A   Clear
9:53 PM 75.9 °F - 69.1 °F 79% 29.82 in 10.0 mi NNE 9.2 mph 16.1 mph N/A   Clear
10:53 PM 75.0 °F - 69.1 °F 82% 29.82 in 10.0 mi NNE 10.4 mph - N/A   Scattered Clouds
11:53 PM 73.9 °F - 69.1 °F 85% 29.80 in 10.0 mi NNE 8.1 mph - N/A   Partly Cloudy